Regional Weather Roundup
Issued by NWS Columbia, SC

Home | Current Version | Previous Version | Text Only | Print | Product List | Glossary On
Versions: 1 2 3 4 5 6 7 8 9 10 11 12 13 14 15 16 17 18 19 20 21 22 23 24 25 26 27
000
ASUS42 KCAE 240610
RWRCAE
REGIONAL WEATHER ROUNDUP
NATIONAL WEATHER SERVICE COLUMBIA SC
200 AM EDT THU APR 24 2014

NOTE: "FAIR" INDICATES FEW OR NO CLOUDS BELOW 12,000 FEET WITH NO
SIGNIFICANT WEATHER AND/OR OBSTRUCTIONS TO VISIBILITY.

NOT ALL STATIONS ARE QUALITY CONTROLLED BY THE NATIONAL
WEATHER SERVICE. USE DATA WITH CAUTION...ESPECIALLY
DEWPOINT OBSERVATIONS.

SCZ001>056-GAZ040-063>065-077-240700-
...UPSTATE SOUTH CAROLINA...

CITY           SKY/WX    TMP DP  RH WIND       PRES   REMARKS
ANDERSON       FAIR      55  33  43 E8        29.96F
6HR MIN TEMP:  54; 6HR MAX TEMP:  73;

LIBERTY        FAIR      57  50  78 MISG      29.97S
6HR MIN TEMP:  56; 6HR MAX TEMP:  83;

SPARTANBURG    FAIR      55  32  41 NE5       29.99S
CLEMSON        FAIR      60  29  30 CALM      29.98R
6HR MIN TEMP:  60; 6HR MAX TEMP:  75;

GREENVILLE     FAIR      60  28  29 NE12      29.98S
6HR MIN TEMP:  60; 6HR MAX TEMP:  74;

GREENWOOD      FAIR      53  38  56 NE3       29.99S
6HR MIN TEMP:  52; 6HR MAX TEMP:  71;

GREER          FAIR      58  30  34 NE8       29.98R
6HR MIN TEMP:  58; 6HR MAX TEMP:  72;

ROCK HILL      FAIR      51  35  54 CALM      30.01R
6HR MIN TEMP:  50; 6HR MAX TEMP:  67;

CHESTER        FAIR      55  37  50 NE7       30.00S
LAURENS        FAIR      57  32  38 NE7       30.00R


...CENTRAL SOUTH CAROLINA...

CITY           SKY/WX    TMP DP  RH WIND       PRES   REMARKS
COLUMBIA APT   FAIR      50  45  83 CALM      29.97R
6HR MIN TEMP:  50; 6HR MAX TEMP:  76;

COLUMBIA OWENS FAIR      54  44  69 CALM      29.98R
6HR MIN TEMP:  53; 6HR MAX TEMP:  72;

DARLINGTON     FAIR      54  37  54 N7        30.00S
6HR MIN TEMP:  52; 6HR MAX TEMP:  70;

FLORENCE       FAIR      54  40  59 N3        29.98R
6HR MIN TEMP:  51; 6HR MAX TEMP:  72;

MCENTIRE ANGB  FAIR      49  43  78 NW2       29.97R
6HR MIN TEMP:  49; 6HR MAX TEMP:  72;

ORANGEBURG     FAIR      54  48  80 CALM      29.96R
6HR MIN TEMP:  53; 6HR MAX TEMP:  78;

SUMTER SHAW    FAIR      52  41  66 NE9       29.96R
6HR MIN TEMP:  49; 6HR MAX TEMP:  71; 6HR PCP: TRACE;

NEWBERRY       FAIR      57  36  44 NE9       30.01S
AIKEN          FAIR      55  46  71 CALM      29.99S
BARNWELL       FAIR      52  50  93 CALM      29.95S
MANNING        FAIR      52  48  87 CALM      29.96S
CAMDEN         FAIR      57  36  44 NE8       30.00R
LANCASTER      FAIR      48  37  66 CALM      30.00S
WINNSBORO      FAIR      57  34  41 NE8       29.98S


...EASTERN AND COASTAL SOUTH CAROLINA...

CITY           SKY/WX    TMP DP  RH WIND       PRES   REMARKS
MYRTLE BEACH   FAIR      57  50  77 CALM      29.97S
6HR MIN TEMP:  57; 6HR MAX TEMP:  66;

N MYRTLE BCH   FAIR      50  46  86 CALM      29.97R
6HR MIN TEMP:  49; 6HR MAX TEMP:  66;

CONWAY         FAIR      48  48 100 CALM      29.98R
MARION         FAIR      50  43  76 CALM      29.99R
HARTSVILLE     FAIR      61  32  33 NE10      30.00R
FLORENCE       FAIR      54  40  59 N3        29.98R
6HR MIN TEMP:  51; 6HR MAX TEMP:  72;

DARLINGTON     FAIR      54  37  54 N7        30.00S
6HR MIN TEMP:  52; 6HR MAX TEMP:  70;

CHARLESTON APT FAIR      60  48  64 NE5       29.94F
6HR MIN TEMP:  60; 6HR MAX TEMP:  75;

MOUNT PLEASANT LGT RAIN  55  55 100 CALM      29.94F
WALTERBORO     FAIR      55  55 100 CALM      29.95S
BEAUFORT       FAIR      60  56  86 NE3       29.92F
6HR MIN TEMP:  59; 6HR MAX TEMP:  78;



...EASTERN GEORGIA...

CITY           SKY/WX    TMP DP  RH WIND       PRES   REMARKS
AUGUSTA BUSH F FAIR      51  47  86 W3        29.95R
6HR MIN TEMP:  49; 6HR MAX TEMP:  73; 6HR PCP: TRACE;

AUGUSTA DANIEL FAIR      63  44  50 CALM      29.95S
6HR MIN TEMP:  62; 6HR MAX TEMP:  77;

THOMSON        FAIR      49  49 100 CALM      29.99F
6HR MIN TEMP:  49; 6HR MAX TEMP:  69;

WASHINGTON     FAIR      54  50  87 CALM      29.95F
CLAXTON        FAIR     N/A N/A N/A CALM      29.93F HAZE
SYLVANIA       FAIR      57  53  85 CALM      29.94S
6HR MIN TEMP:  56; 6HR MAX TEMP:  73;

STATESBORO     FAIR      53  53 100 CALM      29.93S
6HR MIN TEMP:  53; 6HR MAX TEMP:  73;

SAVANNAH       FAIR      61  56  83 CALM      29.93S
6HR MIN TEMP:  60; 6HR MAX TEMP:  77;



...SOUTHERN NORTH CAROLINA...

CITY           SKY/WX    TMP DP  RH WIND       PRES   REMARKS
CHARLOTTE      FAIR      56  29  35 NE7       30.01S
6HR MIN TEMP:  56; 6HR MAX TEMP:  67;

MONROE         FAIR      53  32  44 NE7       30.00S
6HR MIN TEMP:  53; 6HR MAX TEMP:  67;

WADESBORO      FAIR      44  40  86 CALM      30.02R
6HR MIN TEMP:  44; 6HR MAX TEMP:  66;

ROCKINGHAM       N/A     53  34  47 N5        30.01R
6HR MIN TEMP:  52; 6HR MAX TEMP:  71;

RUTHERFORDTON  FAIR      50  31  49 CALM      30.01S
6HR MIN TEMP:  50; 6HR MAX TEMP:  68;

ASHEVILLE      FAIR      48  30  49 CALM      30.02S
6HR MIN TEMP:  48; 6HR MAX TEMP:  61;


$$



USA.gov is the U.S. government's official web portal to all federal, state and local government web resources and services.